Location: *
(44.1392°N, 4.8079°E)
Time: 21:11:04
(UTC+00:00)

GPS 2-04 Rocket1 - Pass Details

Date: 21 June 2021
Orbit: 415 x 539 km, 35.6° (Epoch: 02 August)

Event Time Altitude Azimuth Distance (km) Brightness Sun altitude
Exits shadow 01:48:56 22° 159° (SSE) 1,148 4.1 -16.5°
Drops below altitude 10° 01:51:15 10° 126° (SE) 1,706 5.3 -16.3°
Sets 01:53:42 0° 112° (ESE) 2,565 6.4 -16.1°
